Back to catalog

STARLINK-36879

AliveCommunicationsSSO
NORAD 67982·PAYLOAD·🇺🇸 United States

Launched Feb 25, 2026 from Vandenberg Space Force Base

Loading…

Next Passes (next 24 hours)

TLE

FreshSource: CelesTrak SupGP

Epoch: Sep 15, 2026, 03:47 UTC

1 67982C 26038X   26258.15812500 -.00058403  00000+0 -18131-2 0  2581
2 67982  97.2842 266.6376 0001500  94.7332 103.2263 15.33465341    19

Track STARLINK-36879 in real time with AllMySat

Download on the App Store